Modesto, CA

4:17 PM PST on January 18, 2018 (GMT -0800)
Modesto City-County-Sham

Weather History for KMOD - June, 2012

Change the Weather History Date:

Wednesday, June 6, 2012

  Actual Average Record
Temperature  
Mean Temperature 68 °F -  
Max Temperature 82 °F 88 °F 104 °F (1978)
Min Temperature 54 °F 58 °F 45 °F (1988)
Degree Days  
Heating Degree Days 0 0  
Month to date heating degree days 4 0  
Since 1 June heating degree days 4 0  
Since 1 July heating degree days 2515 2168  
Cooling Degree Days 3 8  
Month to date cooling degree days 42 46  
Year to date cooling degree days 241 245  
Since 1 June cooling degree days 42 46  
Growing Degree Days 18 (Base 50)    
Moisture  
Dew Point 39 °F    
Average Humidity 40    
Maximum Humidity 61    
Minimum Humidity 18    
Precipitation  
Precipitation 0.00 in 0.01 in 0.35 in (1953)
Month to date precipitation 0.10 0.05  
Year to date precipitation 6.85 8.68  
Since 1 July precipitation 8.73  
Snow  
Snow 0.00 in - - ()
Month to date snowfall 0.0  
Since 1 June snowfall 0.0  
Since 1 July snowfall 0.0  
Snow Depth -    
Sea Level Pressure  
Sea Level Pressure 29.98 in    
Wind  
Wind Speed 13 mph (NW)    
Max Wind Speed 20 mph    
Max Gust Speed 30 mph    
Visibility 10 miles    
Events      
T = Trace of Precipitation, MM = Missing Value Source: NWS Daily Summary

Daily Weather History Graph

Daily Weather History Graph

Search for Another Location

Airport or City:

Trip Planner

Search our weather history database for the weather conditions in past years. The results will help you decide how hot, cold, wet, or windy it might be!

Date:

Astronomy

Jun. 06, 2012 Rise Set
Actual Time 5:42 AM PDT 8:23 PM PDT
Civil Twilight 5:11 AM PDT 8:54 PM PDT
Nautical Twilight 4:32 AM PDT 9:32 PM PDT
Astronomical Twilight 3:49 AM PDT 10:16 PM PDT
Moon 10:40 PM PDT (6/6) 8:08 AM PDT (6/6)
Length of Visible Light 15h 42m
Length of Day
14h 40m
Waning Gibbous, 92% of the Moon is Illuminated
Jun 6
Waning Gibbous
Jun 11
Last Quarter
Jun 19
New
Jun 26
First Quarter
Jul 3
Full

Hourly Weather History & Observations

Time (PDT) Temp. Dew Point Humidity Pressure Visibility Wind Dir Wind Speed Gust Speed Precip Events Conditions
12:53 AM 57.9 °F 41.0 °F 53% 30.05 in 10.0 mi WNW 13.8 mph - N/A   Clear
1:53 AM 57.9 °F 41.0 °F 53% 30.05 in 10.0 mi WNW 10.4 mph 18.4 mph N/A   Clear
2:53 AM 57.0 °F 42.1 °F 57% 30.05 in 10.0 mi NW 9.2 mph - N/A   Clear
3:53 AM 55.0 °F 42.1 °F 62% 30.05 in 10.0 mi North - - N/A   Clear
4:53 AM 55.0 °F 42.1 °F 62% 30.04 in 10.0 mi WNW 11.5 mph - N/A   Clear
5:53 AM 55.0 °F 42.1 °F 62% 30.04 in 10.0 mi WNW 11.5 mph - N/A   Clear
6:53 AM 57.9 °F 41.0 °F 53% 30.04 in 10.0 mi NW 12.7 mph - N/A   Clear
7:53 AM 61.0 °F 41.0 °F 48% 30.04 in 10.0 mi NW 12.7 mph 21.9 mph N/A   Clear
9:53 AM 66.9 °F 41.0 °F 39% 30.04 in 10.0 mi NW 15.0 mph - N/A   Clear
10:53 AM 70.0 °F 39.9 °F 33% 30.03 in 10.0 mi NW 17.3 mph 20.7 mph N/A   Clear
11:53 AM 73.0 °F 39.0 °F 29% 30.01 in 10.0 mi NW 16.1 mph 23.0 mph N/A   Clear
12:53 PM 75.0 °F 39.0 °F 27% 29.99 in 10.0 mi NNW 12.7 mph 21.9 mph N/A   Clear
1:53 PM 77.0 °F 39.0 °F 25% 29.97 in 10.0 mi WNW 12.7 mph 17.3 mph N/A   Clear
3:53 PM 80.1 °F 36.0 °F 20% 29.93 in 10.0 mi NNW 15.0 mph 20.7 mph N/A   Clear
4:53 PM 80.1 °F 33.1 °F 18% 29.91 in 10.0 mi WNW 16.1 mph 24.2 mph N/A   Clear
5:53 PM 80.1 °F 34.0 °F 19% 29.90 in 10.0 mi NNW 11.5 mph - N/A   Clear
6:53 PM 78.1 °F 35.1 °F 21% 29.91 in 10.0 mi NW 13.8 mph - N/A   Clear
7:51 PM 73.4 °F 39.2 °F 29% 29.91 in 10.0 mi NW 11.5 mph - N/A   Partly Cloudy
7:53 PM 73.9 °F 39.9 °F 29% 29.91 in 10.0 mi NW 11.5 mph - N/A   Clear
8:53 PM 70.0 °F 41.0 °F 35% 29.92 in 10.0 mi WNW 11.5 mph - N/A   Clear
9:53 PM 66.0 °F 42.1 °F 42% 29.93 in 10.0 mi NW 6.9 mph - N/A   Clear
10:53 PM 66.0 °F 37.0 °F 34% 29.93 in 10.0 mi NW 9.2 mph - N/A   Clear